1484528400.37,10513,5.13,72466.8,-19.55,-20.19,-20.15,0,*62
1484528401.65,10514,5.13,72464.0,-19.55,-20.15,-20.19,0,*65
1484528402.89,10515,5.13,72464.5,-19.55,-20.05,-20.19,0,*65
1484528404.16,10516,5.13,72460.5,-19.53,-20.05,-20.19,0,*60
1484528405.46,10517,5.13,72460.0,-19.53,-20.19,-20.19,0,*6C
1484528406.75,10518,5.13,72462.0,-19.53,-20.19,-20.15,0,*6F
1484528408.0,10519,5.13,72462.0,-19.55,-20.29,-20.19,0,*67
1484528409.27,10520,5.06,72456.8,-19.55,-20.19,-20.19,0,*6E
1484528410.56,10521,5.06,72458.0,-19.53,-20.19,-20.15,0,*65
1484528411.83,10522,5.06,72458.8,-19.55,-20.19,-20.19,0,*6C
1484528413.13,10523,5.06,72456.3,-19.53,-20.19,-20.19,0,*6B
1484528414.37,10524,5.13,72456.8,-19.53,-20.29,-20.29,0,*6C
1484528415.64,10525,5.13,72456.8,-19.53,-20.29,-20.19,0,*6E
1484528416.92,10526,5.13,72454.8,-19.55,-20.19,-20.19,0,*68
1484528418.18,10527,5.13,72456.0,-19.53,-20.29,-20.15,0,*60
1484528419.44,10528,5.13,72454.8,-19.55,-20.19,-20.15,0,*6A
1484528420.74,10529,5.13,72452.3,-19.53,-20.19,-20.19,0,*61
1484528422.01,10530,5.06,72450.0,-19.53,-20.29,-20.19,0,*6A
1484528423.27,10531,5.13,72456.3,-19.53,-20.29,-20.15,0,*67
1484528424.49,10532,5.13,72452.3,-19.55,-20.29,-20.29,0,*6D
1484528425.73,10533,5.13,72460.5,-19.53,-20.29,-20.29,0,*6A
1484528426.97,10534,5.06,72454.0,-19.53,-20.29,-20.29,0,*6D
1484528428.27,10535,5.06,72454.8,-19.53,-20.19,-20.19,0,*6C
1484528429.57,10536,5.13,72462.3,-19.53,-20.19,-20.19,0,*6F
1484528430.87,10537,5.13,72458.0,-19.53,-20.19,-20.19,0,*6E
1484528432.11,10538,5.13,72456.3,-19.55,-20.15,-19.99,0,*69
1484528433.35,10539,5.06,72444.0,-19.53,-20.05,-19.99,0,*6F
1484528434.63,10540,5.13,72446.5,-19.53,-20.19,-20.05,0,*63
1484528435.85,10541,5.13,72454.0,-19.51,-20.09,-20.09,0,*6D
1484528437.09,10542,5.13,72448.0,-19.51,-20.15,-19.99,0,*60
1484528438.31,10543,5.13,72444.5,-19.51,-20.09,-20.09,0,*6F
1484528439.53,10544,5.06,72440.0,-19.51,-20.09,-19.99,0,*6B
1484528440.77,10545,5.13,72448.8,-19.51,-20.15,-20.09,0,*64
1484528442.01,10546,5.13,72446.0,-19.47,-20.15,-20.09,0,*60
1484528443.27,10547,5.13,72444.5,-19.47,-20.15,-20.15,0,*6C
1484528444.49,10548,5.13,72450.8,-19.47,-20.09,-20.09,0,*63
1484528445.73,10549,5.13,72448.8,-19.51,-20.15,-20.09,0,*68
1484528446.97,10550,5.13,72450.3,-19.51,-20.09,-20.15,0,*60
1484528448.21,10551,5.13,72450.3,-19.51,-20.09,-20.15,0,*61
1484528449.43,10552,5.13,72452.8,-19.51,-20.25,-20.09,0,*61
1484528450.65,10553,5.06,72448.5,-19.51,-20.09,-20.09,0,*6E
1484528451.9,10554,5.13,72458.5,-19.51,-20.15,-20.09,0,*64
1484528453.11,10555,5.13,72458.8,-19.47,-20.05,-19.95,0,*6C
1484528454.33,10556,5.13,72454.5,-19.47,-20.09,-20.05,0,*60
1484528455.57,10557,5.13,72458.0,-19.51,-20.15,-20.09,0,*67
1484528456.79,10558,5.06,72456.3,-19.51,-20.09,-19.95,0,*6A
1484528458.02,10559,5.06,72458.3,-19.51,-19.99,-19.95,0,*68
1484528459.25,10560,5.06,72458.8,-19.51,-19.99,-20.09,0,*6D
1484528460.47,10561,5.13,72460.3,-19.47,-19.99,-19.99,0,*68
1484528461.7,10562,5.06,72456.5,-19.51,-19.95,-19.91,0,*68
1484528462.92,10563,5.13,72460.3,-19.51,-19.95,-19.99,0,*61
1484528464.14,10564,5.13,72462.0,-19.47,-19.91,-19.91,0,*6D
1484528465.36,10565,5.06,72456.3,-19.47,-20.05,-19.95,0,*6F
1484528466.57,10566,5.13,72456.0,-19.47,-20.05,-20.05,0,*6F
1484528467.79,10567,5.13,72456.3,-19.47,-20.05,-20.05,0,*6E
1484528469.0,10568,5.13,72456.5,-19.47,-20.05,-20.05,0,*61
1484528470.22,10569,5.13,72458.0,-19.47,-20.09,-20.05,0,*6C
1484528471.43,10570,5.13,72454.3,-19.47,-20.09,-20.09,0,*68
1484528472.65,10571,5.13,72458.3,-19.47,-19.91,-19.95,0,*6D
1484528473.88,10572,5.13,72456.8,-19.51,-20.09,-19.95,0,*62
1484528475.09,10573,5.13,72462.5,-19.47,-20.09,-20.09,0,*6B
1484528476.3,10574,5.13,72462.5,-19.47,-20.05,-20.05,0,*6C
1484528477.52,10575,5.13,72462.5,-19.47,-20.09,-20.09,0,*6D
1484528478.74,10576,5.13,72460.0,-19.47,-20.05,-19.95,0,*6D
1484528479.95,10577,5.13,72462.3,-19.47,-20.05,-20.05,0,*6F
1484528481.21,10578,5.13,72462.3,-19.51,-20.15,-20.15,0,*67
1484528482.43,10579,5.06,72458.0,-19.51,-20.09,-20.09,0,*66
1484528483.65,10580,5.13,72462.3,-19.47,-20.09,-20.09,0,*67
1484528484.86,10581,5.06,72460.3,-19.47,-20.05,-20.05,0,*66
1484528486.08,10582,5.13,72468.3,-19.47,-20.05,-20.09,0,*69
1484528487.29,10583,5.06,72462.0,-19.47,-20.09,-20.05,0,*68
1484528488.51,10584,5.13,72464.3,-19.47,-20.09,-20.09,0,*63
1484528489.72,10585,5.13,72462.5,-19.47,-20.09,-20.09,0,*62
1484528490.96,10586,5.13,72460.5,-19.47,-20.19,-20.09,0,*60
1484528492.2,10587,5.06,72458.0,-19.47,-20.19,-20.09,0,*61
1484528493.47,10588,5.06,72458.3,-19.47,-20.19,-20.19,0,*6F
1484528494.74,10589,5.06,72452.0,-19.47,-20.19,-20.19,0,*6E
1484528495.98,10590,5.13,72456.8,-19.47,-20.19,-19.95,0,*68
1484528497.25,10591,5.13,72458.8,-19.47,-20.19,-20.19,0,*67
1484528498.47,10592,5.06,72448.8,-19.47,-20.25,-20.09,0,*6A
1484528499.69,10593,5.13,72456.3,-19.47,-20.25,-20.05,0,*67
1484528500.95,10594,5.13,72454.8,-19.45,-20.19,-20.09,0,*61
1484528502.2,10595,5.13,72456.3,-19.47,-20.19,-20.25,0,*6C
1484528503.47,10596,5.06,72458.8,-19.45,-20.25,-20.19,0,*6D
1484528504.69,10597,5.06,72458.3,-19.47,-20.25,-20.25,0,*61
1484528505.94,10598,5.06,72452.0,-19.47,-20.25,-20.19,0,*61
1484528507.18,10599,5.13,72454.3,-19.47,-20.25,-20.19,0,*60
1484528508.43,10600,5.06,72452.8,-19.47,-20.19,-20.25,0,*63
1484528509.69,10601,5.13,72456.3,-19.47,-20.19,-20.19,0,*6D
1484528510.94,10602,5.06,72448.8,-19.47,-20.25,-20.19,0,*61
1484528512.16,10603,5.13,72456.8,-19.47,-20.25,-20.25,0,*6F
1484528513.4,10604,5.13,72452.3,-19.47,-20.19,-20.25,0,*67
1484528514.65,10605,5.06,72450.8,-19.47,-20.19,-20.25,0,*66
1484528515.92,10606,5.06,72450.5,-19.45,-20.25,-20.19,0,*67
1484528517.16,10607,5.13,72450.0,-19.47,-20.25,-20.19,0,*64
1484528518.43,10608,5.13,72450.0,-19.47,-20.19,-20.19,0,*64
1484528519.7,10609,5.13,72450.8,-19.47,-20.19,-20.19,0,*65
1484528520.96,10610,5.13,72450.0,-19.47,-20.19,-20.35,0,*63
1484528522.23,10611,5.13,72450.8,-19.45,-20.19,-20.25,0,*61
1484528523.48,10612,5.13,72454.5,-19.47,-20.25,-20.35,0,*6E
1484528524.72,10613,5.13,72454.0,-19.47,-20.25,-20.19,0,*61
1484528525.96,10614,5.06,72450.8,-19.47,-20.25,-20.35,0,*68
1484528527.21,10615,5.13,72458.0,-19.47,-20.19,-20.25,0,*67
1484528528.46,10616,5.06,72456.0,-19.45,-20.25,-20.25,0,*69
1484528529.7,10617,5.13,72456.0,-19.47,-20.25,-20.19,0,*65
1484528530.99,10618,5.06,72452.8,-19.45,-20.35,-20.19,0,*69
1484528532.23,10619,5.06,72454.0,-19.47,-20.35,-20.25,0,*65
1484528533.5,10620,5.06,72454.5,-19.47,-20.35,-20.35,0,*6E
1484528534.72,10621,5.06,72454.5,-19.47,-20.39,-20.39,0,*6F
1484528536.01,10622,5.13,72456.0,-19.45,-20.35,-20.35,0,*6E
1484528537.3,10623,5.13,72456.5,-19.45,-20.35,-20.35,0,*6F
1484528538.57,10624,5.13,72454.8,-19.47,-20.35,-20.35,0,*6A
1484528539.86,10625,5.13,72458.5,-19.45,-20.35,-20.35,0,*69
1484528541.12,10626,5.06,72458.5,-19.47,-20.35,-20.35,0,*68
1484528542.35,10627,5.13,72458.3,-19.47,-20.39,-20.39,0,*69
1484528543.59,10628,5.13,72460.3,-19.47,-20.39,-20.35,0,*6A
1484528544.82,10629,5.13,72460.5,-19.47,-20.39,-20.39,0,*67
1484528546.08,10630,5.13,72458.3,-19.47,-20.35,-20.35,0,*6F
1484528547.35,10631,5.13,72458.3,-19.47,-20.35,-20.35,0,*6E
1484528548.57,10632,5.06,72460.0,-19.47,-20.39,-20.25,0,*60
1484528549.86,10633,5.13,72460.3,-19.45,-20.35,-20.35,0,*6E
1484528551.12,10634,5.13,72458.5,-19.47,-20.35,-20.35,0,*6B
1484528552.35,10635,5.13,72458.5,-19.47,-20.39,-20.25,0,*67
1484528553.61,10636,5.06,72456.3,-19.47,-20.35,-20.35,0,*69
1484528554.86,10637,5.06,72458.8,-19.47,-20.35,-20.39,0,*64
1484528556.09,10638,5.13,72460.3,-19.47,-20.39,-20.39,0,*67
1484528557.33,10639,5.13,72456.3,-19.47,-20.39,-20.35,0,*6A
1484528558.58,10640,5.13,72458.8,-19.47,-20.39,-20.35,0,*64
1484528559.84,10641,5.13,72458.8,-19.47,-20.35,-20.35,0,*69
1484528561.07,10642,5.06,72458.0,-19.47,-20.39,-20.39,0,*6A
1484528562.32,10643,5.13,72458.0,-19.45,-20.39,-20.39,0,*69
1484528563.55,10644,5.06,72458.0,-19.47,-20.39,-20.39,0,*6C
1484528564.8,10645,5.13,72456.8,-19.47,-20.43,-20.35,0,*6C
1484528566.03,10646,5.06,72458.5,-19.47,-20.39,-20.39,0,*6E
1484528567.29,10647,5.13,72460.0,-19.45,-20.39,-20.39,0,*6D
1484528568.52,10648,5.06,72454.5,-19.47,-20.43,-20.39,0,*6D
1484528569.75,10649,5.13,72456.0,-19.47,-20.39,-20.39,0,*61
1484528570.98,10650,5.06,72458.0,-19.47,-20.39,-20.39,0,*69
1484528572.23,10651,5.06,72456.0,-19.47,-20.53,-20.43,0,*69
1484528573.46,10652,5.06,72462.0,-19.47,-20.43,-20.43,0,*6B
1484528574.69,10653,5.06,72458.8,-19.47,-20.43,-20.43,0,*6A
1484528575.94,10654,5.13,72460.0,-19.47,-20.53,-20.43,0,*6C
1484528577.17,10655,5.06,72458.8,-19.47,-20.43,-20.43,0,*6C
1484528578.42,10656,5.13,72462.3,-19.47,-20.53,-20.43,0,*6E
1484528579.64,10657,5.13,72460.0,-19.47,-20.43,-20.69,0,*66
1484528580.87,10658,5.06,72458.5,-19.47,-20.59,-20.59,0,*61
1484528582.1,10659,5.06,72458.0,-19.47,-20.59,-20.59,0,*60
1484528583.33,10660,5.06,72460.3,-19.47,-20.59,-20.59,0,*6A
1484528584.56,10661,5.06,72462.0,-19.51,-20.63,-20.63,0,*6C
1484528585.79,10662,5.06,72458.0,-19.51,-20.73,-20.63,0,*6E
1484528587.02,10663,5.13,72460.0,-19.51,-20.63,-20.63,0,*6E
1484528588.27,10664,5.13,72462.5,-19.51,-20.79,-20.63,0,*62
1484528589.49,10665,5.06,72458.3,-19.51,-20.73,-20.73,0,*68
1484528590.73,10666,5.06,72462.8,-19.51,-20.63,-20.63,0,*6B
1484528591.95,10667,5.06,72462.3,-19.51,-20.73,-20.73,0,*6A
1484528593.17,10668,5.13,72466.0,-19.47,-20.69,-20.69,0,*62
1484528594.38,10669,5.13,72464.0,-19.47,-20.73,-20.69,0,*68
1484528595.62,10670,5.06,72458.8,-19.51,-20.89,-20.73,0,*69
1484528596.86,10671,5.06,72458.0,-19.51,-20.79,-20.73,0,*67
1484528598.12,10672,5.13,72460.8,-19.51,-20.79,-20.63,0,*65
1484528599.42,10673,5.06,72462.5,-19.53,-20.83,-20.79,0,*68
1484528600.64,10674,5.06,72462.8,-19.51,-20.73,-20.73,0,*68
1484528601.88,10675,5.06,72462.5,-19.51,-20.73,-20.79,0,*63
1484528603.12,10676,5.06,72460.8,-19.51,-20.73,-20.79,0,*60
1484528604.37,10677,5.06,72466.5,-19.51,-20.79,-20.73,0,*61
1484528605.67,10678,5.06,72466.0,-19.53,-20.83,-20.79,0,*63
1484528606.92,10679,5.06,72456.8,-19.51,-20.79,-20.73,0,*6F
1484528608.2,10680,5.06,72460.8,-19.55,-20.83,-20.83,0,*67
1484528609.5,10681,5.06,72460.5,-19.53,-20.83,-20.79,0,*65
1484528610.75,10682,5.13,72464.8,-19.51,-20.79,-20.73,0,*6B
1484528612.0,10683,5.06,72462.5,-19.53,-20.69,-20.69,0,*62
1484528613.3,10684,5.06,72460.8,-19.53,-20.79,-20.79,0,*65
1484528614.54,10685,5.06,72458.3,-19.53,-20.69,-20.69,0,*64
1484528615.79,10686,5.06,72468.5,-19.53,-20.69,-20.69,0,*67
1484528617.05,10687,5.06,72458.8,-19.55,-20.53,-20.63,0,*63
1484528618.31,10688,5.06,72464.0,-19.53,-20.63,-20.63,0,*69
1484528619.54,10689,5.06,72460.8,-19.55,-20.63,-20.63,0,*6E
1484528620.77,10690,5.06,72462.3,-19.55,-20.63,-20.63,0,*66
1484528622.03,10691,5.06,72458.8,-19.53,-20.63,-20.63,0,*61
1484528623.28,10692,5.06,72460.3,-19.55,-20.63,-20.53,0,*67
1484528624.54,10693,5.06,72460.8,-19.55,-20.69,-20.53,0,*6C
1484528625.82,10694,5.06,72462.5,-19.55,-20.53,-20.53,0,*62
1484528627.07,10695,5.06,72462.0,-19.55,-20.53,-20.63,0,*60
1484528628.38,10696,5.06,72460.5,-19.53,-20.53,-20.53,0,*66
1484528629.68,10697,5.06,72462.8,-19.53,-20.53,-20.53,0,*67
1484528630.96,10698,5.06,72458.5,-19.55,-20.53,-20.53,0,*6E
1484528632.25,10699,5.06,72464.3,-19.55,-20.53,-20.53,0,*6F
1484528633.48,10700,5.06,72460.3,-19.55,-20.63,-20.43,0,*6C
1484528634.78,10701,5.06,72460.8,-19.53,-20.53,-20.49,0,*62
1484528636.07,10702,5.13,72466.8,-19.55,-20.53,-20.49,0,*67
1484528637.35,10703,5.06,72458.8,-19.55,-20.49,-20.49,0,*6D
1484528638.61,10704,5.06,72462.3,-19.55,-20.49,-20.43,0,*60
1484528639.84,10705,5.06,72460.5,-19.55,-20.43,-20.43,0,*6B
1484528641.11,10706,5.06,72454.0,-19.55,-20.35,-20.35,0,*68
1484528642.4,10707,5.06,72452.3,-19.53,-20.35,-20.35,0,*6F
1484528643.66,10708,5.06,72450.3,-19.55,-20.49,-20.43,0,*6C
1484528644.94,10709,5.06,72446.3,-19.53,-20.43,-20.35,0,*60
1484528646.18,10710,5.06,72448.3,-19.55,-20.29,-20.35,0,*62
1484528647.45,10711,5.06,72450.8,-19.55,-20.35,-20.35,0,*6E
1484528648.72,10712,5.06,72452.3,-19.53,-20.35,-20.29,0,*66
1484528649.96,10713,5.06,72456.0,-19.55,-20.35,-20.29,0,*61
1484528651.23,10714,5.06,72458.3,-19.55,-20.35,-20.35,0,*6B
1484528652.45,10715,5.06,72458.0,-19.55,-20.29,-20.29,0,*6A
1484528653.69,10716,5.06,72464.5,-19.55,-20.35,-20.29,0,*64
1484528654.96,10717,5.06,72462.3,-19.55,-20.35,-20.35,0,*68
1484528656.2,10718,5.06,72462.5,-19.55,-20.29,-20.19,0,*64
1484528657.47,10719,5.06,72458.8,-19.53,-20.35,-20.29,0,*6D
1484528658.72,10720,5.06,72454.0,-19.55,-20.19,-20.29,0,*6F
1484528659.97,10721,5.06,72452.8,-19.55,-20.19,-20.29,0,*6E
1484528661.23,10722,5.13,72460.5,-19.53,-20.29,-20.35,0,*65
1484528662.45,10723,5.06,72458.0,-19.55,-20.29,-20.29,0,*6F
1484528663.72,10724,5.06,72456.3,-19.53,-20.35,-20.29,0,*63
1484528664.99,10725,5.13,72460.3,-19.53,-20.35,-20.29,0,*62
1484528666.25,10726,5.06,72456.5,-19.53,-20.29,-20.35,0,*61
1484528667.47,10727,5.06,72460.3,-19.55,-20.29,-20.29,0,*6B
1484528668.74,10728,5.06,72460.8,-19.53,-20.35,-20.29,0,*6F
1484528670.03,10729,5.06,72458.3,-19.53,-20.35,-20.35,0,*63
1484528671.28,10730,5.06,72460.8,-19.53,-20.29,-20.29,0,*6B
1484528672.54,10731,5.06,72458.8,-19.53,-20.35,-20.29,0,*67
1484528673.84,10732,5.06,72460.0,-19.53,-20.35,-20.35,0,*69
1484528675.08,10733,5.06,72462.5,-19.53,-20.29,-20.29,0,*68
1484528676.35,10734,5.06,72464.0,-19.53,-20.35,-20.29,0,*62
1484528677.62,10735,5.06,72464.3,-19.53,-20.35,-20.29,0,*63
1484528678.88,10736,5.06,72462.8,-19.53,-20.29,-20.35,0,*60
1484528680.17,10737,5.06,72462.8,-19.53,-20.35,-20.35,0,*6C
1484528681.44,10738,5.06,72462.8,-19.53,-20.35,-20.29,0,*6E
1484528682.71,10739,5.13,72462.8,-19.53,-20.35,-20.29,0,*6F
1484528684.0,10740,5.06,72462.8,-19.53,-20.35,-20.35,0,*6C
1484528685.3,10741,5.06,72462.0,-19.53,-20.35,-20.35,0,*6D
1484528686.56,10742,5.06,72462.8,-19.53,-20.29,-20.35,0,*63
1484528687.86,10743,5.13,72464.3,-19.53,-20.35,-20.35,0,*6F
1484528689.15,10744,5.06,72464.5,-19.53,-20.35,-20.35,0,*68
1484528690.42,10745,5.06,72464.5,-19.53,-20.35,-20.29,0,*64
1484528691.69,10746,5.06,72466.3,-19.53,-20.35,-20.29,0,*67
1484528692.98,10747,5.06,72466.0,-19.53,-20.35,-20.35,0,*6B
1484528694.27,10748,5.06,72462.8,-19.53,-20.35,-20.35,0,*64
1484528695.54,10749,5.06,72464.8,-19.53,-20.35,-20.29,0,*68
1484528696.83,10750,5.06,72464.0,-19.53,-20.35,-20.35,0,*6D
1484528698.11,10751,5.06,72466.3,-19.53,-20.35,-20.43,0,*6D
1484528699.38,10752,5.13,72466.8,-19.53,-20.35,-20.29,0,*62
1484528700.66,10753,5.06,72462.0,-19.53,-20.43,-20.35,0,*6F
1484528701.95,10754,5.13,72466.5,-19.53,-20.35,-20.35,0,*69
1484528703.24,10755,5.06,72460.5,-19.53,-20.35,-20.35,0,*68
1484528704.51,10756,5.06,72458.8,-19.53,-20.29,-20.35,0,*66
1484528705.78,10757,5.13,72460.3,-19.53,-20.35,-20.29,0,*67
1484528706.99,10758,5.06,72458.8,-19.51,-20.29,-20.29,0,*67
1484528708.21,10759,5.06,72462.5,-19.51,-20.29,-20.29,0,*66
1484528709.5,10760,5.06,72460.3,-19.53,-20.35,-20.35,0,*6E
1484528710.78,10761,5.06,72464.5,-19.53,-20.43,-20.35,0,*6E
1484528712.02,10762,5.06,72464.3,-19.53,-20.29,-20.43,0,*60
1484528713.29,10763,5.06,72462.5,-19.53,-20.29,-20.35,0,*60
1484528714.51,10764,5.06,72466.5,-19.51,-20.29,-20.39,0,*69
1484528715.74,10765,5.06,72462.3,-19.51,-20.39,-20.39,0,*69
1484528716.97,10766,5.06,72464.5,-19.47,-20.39,-20.25,0,*60
1484528718.24,10767,5.06,72464.0,-19.53,-20.35,-20.43,0,*68
1484528719.54,10768,5.06,72466.3,-19.53,-20.35,-20.35,0,*66
1484528720.81,10769,5.13,72470.5,-19.55,-20.35,-20.35,0,*61
1484528722.06,10770,5.13,72466.3,-19.53,-20.43,-20.29,0,*63
1484528723.32,10771,5.06,72464.8,-19.53,-20.43,-20.43,0,*6E
1484528724.6,10772,5.13,72464.0,-19.53,-20.35,-20.43,0,*6C
1484528725.88,10773,5.06,72458.5,-19.53,-20.49,-20.43,0,*66
1484528727.16,10774,5.06,72460.5,-19.53,-20.43,-20.49,0,*61
1484528728.44,10775,5.06,72462.0,-19.53,-20.43,-20.35,0,*6B
1484528729.72,10776,5.06,72456.3,-19.53,-20.43,-20.35,0,*68
1484528730.98,10777,5.06,72458.8,-19.53,-20.43,-20.43,0,*68
1484528732.24,10778,5.06,72458.5,-19.53,-20.43,-20.43,0,*67
1484528733.46,10779,5.06,72462.8,-19.51,-20.29,-20.29,0,*64
1484528734.68,10780,5.06,72462.5,-19.51,-20.39,-20.29,0,*63
1484528735.91,10781,5.06,72462.8,-19.51,-20.39,-20.29,0,*62
1484528737.13,10782,5.06,72462.8,-19.51,-20.39,-20.29,0,*61
1484528738.36,10783,5.06,72464.0,-19.51,-20.29,-20.39,0,*60
1484528739.58,10784,5.06,72456.8,-19.51,-20.29,-20.43,0,*6A
1484528740.81,10785,5.13,72464.3,-19.51,-20.39,-20.39,0,*67
1484528742.04,10786,5.13,72462.5,-19.51,-20.39,-20.29,0,*65
1484528743.32,10787,5.06,72458.8,-19.53,-20.43,-20.35,0,*66
1484528744.54,10788,5.06,72456.3,-19.51,-20.39,-20.29,0,*6B
1484528745.77,10789,5.06,72456.5,-19.51,-20.39,-20.39,0,*6B
1484528747.06,10790,5.06,72460.3,-19.53,-20.43,-20.49,0,*6B
1484528748.34,10791,5.06,72458.5,-19.53,-20.49,-20.43,0,*6A
1484528749.6,10792,5.06,72462.0,-19.53,-20.43,-20.43,0,*63
1484528750.88,10793,5.06,72456.3,-19.53,-20.49,-20.43,0,*68
1484528752.18,10794,5.06,72456.0,-19.53,-20.49,-20.35,0,*6E
1484528753.42,10795,5.06,72456.3,-19.51,-20.43,-20.39,0,*6B
1484528754.65,10796,5.06,72458.3,-19.51,-20.43,-20.43,0,*65
1484528755.96,10797,5.13,72456.0,-19.53,-20.49,-20.49,0,*66
1484528757.26,10798,5.06,72452.3,-19.53,-20.49,-20.49,0,*69
1484528758.54,10799,5.13,72456.3,-19.53,-20.49,-20.43,0,*62
1484528759.85,10800,5.13,72458.5,-19.53,-20.49,-20.49,0,*67
1484528761.16,10801,5.13,72456.5,-19.53,-20.49,-20.49,0,*66
1484528762.46,10802,5.13,72458.0,-19.53,-20.53,-20.49,0,*6E
1484528763.74,10803,5.06,72458.8,-19.53,-20.49,-20.43,0,*6E
1484528765.05,10804,5.06,72460.3,-19.53,-20.49,-20.49,0,*63
1484528766.36,10805,5.06,72462.0,-19.53,-20.49,-20.49,0,*62
1484528767.65,10806,5.06,72462.8,-19.53,-20.43,-20.49,0,*6B
1484528768.88,10807,5.13,72462.0,-19.51,-20.43,-20.43,0,*62
1484528770.19,10808,5.06,72456.8,-19.53,-20.49,-20.49,0,*6F
1484528771.49,10809,5.06,72458.0,-19.53,-20.49,-20.49,0,*6E
1484528772.8,10810,5.06,72458.0,-19.53,-20.49,-20.49,0,*66
1484528774.03,10811,5.13,72458.0,-19.51,-20.43,-20.43,0,*65
1484528775.34,10812,5.06,72458.5,-19.53,-20.49,-20.49,0,*64
1484528776.65,10813,5.06,72452.8,-19.53,-20.53,-20.49,0,*6E
1484528777.95,10814,5.06,72454.0,-19.53,-20.53,-20.49,0,*69
1484528779.24,10815,5.06,72454.3,-19.55,-20.53,-20.49,0,*6E
1484528780.54,10816,5.06,72454.5,-19.53,-20.53,-20.49,0,*6B
1484528781.85,10817,5.13,72456.5,-19.53,-20.53,-20.49,0,*6A
1484528783.16,10818,5.06,72454.0,-19.53,-20.53,-20.49,0,*65
1484528784.44,10819,5.06,72452.0,-19.55,-20.53,-20.49,0,*62
1484528785.75,10820,5.06,72454.5,-19.53,-20.53,-20.49,0,*6E
1484528787.03,10821,5.06,72454.3,-19.55,-20.53,-20.49,0,*69
1484528788.34,10822,5.06,72452.8,-19.53,-20.53,-20.49,0,*6C
1484528789.64,10823,5.06,72454.3,-19.53,-20.53,-20.49,0,*6D
1484528790.95,10824,5.06,72454.8,-19.53,-20.53,-20.49,0,*6A
1484528792.23,10825,5.06,72456.8,-19.53,-20.53,-20.43,0,*61
1484528793.51,10826,5.06,72456.8,-19.55,-20.53,-20.49,0,*6E
1484528794.82,10827,5.13,72460.8,-19.53,-20.49,-20.49,0,*62
1484528796.13,10828,5.06,72454.5,-19.53,-20.49,-20.49,0,*6D
1484528797.41,10829,5.13,72456.0,-19.55,-20.49,-20.49,0,*6A
1484528798.69,10830,5.06,72456.8,-19.55,-20.53,-20.49,0,*69
1484528799.97,10831,5.06,72454.5,-19.53,-20.49,-20.43,0,*6F
1484528801.26,10832,5.06,72454.5,-19.55,-20.49,-20.49,0,*60
1484528802.54,10833,5.06,72450.5,-19.55,-20.49,-20.49,0,*61
1484528803.82,10834,5.06,72446.0,-19.55,-20.53,-20.49,0,*6D
1484528805.13,10835,5.06,72444.5,-19.53,-20.53,-20.49,0,*6A
1484528806.43,10836,5.06,72446.8,-19.53,-20.53,-20.49,0,*69
1484528807.74,10837,5.06,72446.5,-19.53,-20.53,-20.49,0,*68
1484528809.05,10838,5.06,72450.3,-19.53,-20.53,-20.49,0,*67
1484528810.33,10839,5.06,72450.3,-19.55,-20.53,-20.49,0,*60
1484528811.64,10840,5.06,72448.0,-19.53,-20.53,-20.49,0,*68
1484528812.94,10841,5.06,72444.5,-19.53,-20.53,-20.49,0,*69
1484528814.23,10842,5.13,72450.8,-19.55,-20.49,-20.49,0,*67
1484528815.51,10843,5.06,72450.5,-19.55,-20.49,-20.49,0,*66
1484528816.82,10844,5.13,72452.8,-19.53,-20.49,-20.49,0,*67
1484528818.08,10845,5.13,72452.8,-19.55,-20.43,-20.49,0,*6A
1484528819.32,10846,5.06,72454.0,-19.55,-20.43,-20.43,0,*63
1484528820.6,10847,5.06,72452.3,-19.53,-20.43,-20.49,0,*6E
1484528821.86,10848,5.06,72452.5,-19.53,-20.43,-20.43,0,*6B
1484528823.12,10849,5.06,72450.5,-19.55,-20.43,-20.35,0,*6D
1484528824.39,10850,5.13,72454.5,-19.53,-20.35,-20.43,0,*63
1484528825.65,10851,5.06,72450.0,-19.55,-20.43,-20.35,0,*64
1484528826.91,10852,5.06,72448.3,-19.55,-20.35,-20.35,0,*66
1484528828.18,10853,5.13,72454.8,-19.55,-20.35,-20.35,0,*67
1484528829.4,10854,5.06,72452.3,-19.51,-20.29,-20.29,0,*64
1484528830.65,10855,5.06,72452.8,-19.55,-20.43,-20.35,0,*60
1484528831.92,10856,5.06,72450.8,-19.53,-20.29,-20.35,0,*69
1484528833.16,10857,5.06,72454.0,-19.55,-20.35,-20.29,0,*6E
1484528834.41,10858,5.06,72450.5,-19.55,-20.35,-20.29,0,*61
1484528835.68,10859,5.06,72452.0,-19.53,-20.19,-20.29,0,*68
1484528836.95,10860,5.06,72454.0,-19.53,-20.35,-20.29,0,*6C
1484528838.24,10861,5.13,72452.5,-19.53,-20.35,-20.35,0,*60
1484528839.53,10862,5.06,72450.5,-19.53,-20.35,-20.35,0,*63
1484528840.83,10863,5.06,72450.3,-19.53,-20.35,-20.35,0,*62
1484528842.12,10864,5.13,72450.0,-19.53,-20.35,-20.35,0,*65
1484528843.41,10865,5.06,72448.8,-19.53,-20.35,-20.35,0,*64
1484528844.66,10866,5.13,72452.3,-19.55,-20.35,-20.29,0,*6C
1484528845.92,10867,5.06,72454.0,-19.53,-20.29,-20.19,0,*65
1484528847.19,10868,5.06,72454.8,-19.53,-20.29,-20.35,0,*64
1484528848.48,10869,5.06,72450.3,-19.53,-20.35,-20.35,0,*68
1484528849.7,10870,5.06,72454.0,-19.55,-20.29,-20.29,0,*66
1484528850.99,10871,5.06,72452.0,-19.53,-20.35,-20.35,0,*61
1484528852.23,10872,5.06,72454.0,-19.53,-20.29,-20.29,0,*62
1484528853.53,10873,5.06,72452.5,-19.53,-20.35,-20.35,0,*63
1484528854.8,10874,5.06,72462.0,-19.53,-20.35,-20.29,0,*69
1484528856.09,10875,5.06,72452.8,-19.53,-20.35,-20.35,0,*65
1484528857.38,10876,5.06,72452.0,-19.53,-20.35,-20.19,0,*68
1484528858.63,10877,5.06,72456.8,-19.53,-20.29,-20.29,0,*67
1484528859.89,10878,5.06,72452.3,-19.53,-20.35,-20.29,0,*65
1484528861.16,10879,5.06,72452.8,-19.53,-20.29,-20.19,0,*6A
1484528862.4,10880,5.13,72456.3,-19.53,-20.29,-20.29,0,*6F
1484528863.67,10881,5.06,72454.8,-19.53,-20.15,-20.29,0,*61
1484528864.95,10882,5.06,72456.5,-19.53,-20.19,-20.29,0,*6E
1484528866.19,10883,5.06,72454.8,-19.55,-20.29,-20.35,0,*67
1484528867.43,10884,5.06,72448.0,-19.53,-20.29,-20.29,0,*6B
1484528868.7,10885,5.06,72448.3,-19.53,-20.35,-20.29,0,*67
1484528869.97,10886,5.06,72454.5,-19.53,-20.35,-20.29,0,*64
1484528871.19,10887,5.06,72452.5,-19.51,-20.29,-20.25,0,*66
1484528872.43,10888,5.06,72450.5,-19.53,-20.29,-20.29,0,*67
1484528873.72,10889,5.13,72450.0,-19.53,-20.19,-20.19,0,*66
1484528874.97,10890,5.06,72446.3,-19.53,-20.29,-20.29,0,*6E
1484528876.21,10891,5.06,72448.0,-19.53,-20.29,-20.29,0,*6F
1484528877.45,10892,5.06,72456.0,-19.53,-20.29,-20.29,0,*6C
1484528878.69,10893,5.06,72454.8,-19.53,-20.29,-20.29,0,*6D
1484528879.96,10894,5.06,72454.5,-19.53,-20.35,-20.29,0,*67
1484528881.2,10895,5.06,72452.5,-19.53,-20.29,-20.29,0,*6B
1484528882.47,10896,5.06,72454.8,-19.53,-20.35,-20.29,0,*65
1484528883.74,10897,5.06,72452.0,-19.53,-20.29,-20.35,0,*64
1484528885.0,10898,5.06,72454.5,-19.53,-20.35,-20.29,0,*6B
1484528886.27,10899,5.06,72454.5,-19.53,-20.29,-20.35,0,*6A
1484528887.56,10900,5.06,72452.5,-19.53,-20.35,-20.35,0,*66
1484528888.8,10901,5.06,72450.5,-19.51,-20.29,-20.15,0,*6A
1484528890.01,10902,5.06,72450.8,-19.51,-20.29,-20.29,0,*66
1484528891.24,10903,5.13,72452.0,-19.51,-20.25,-20.25,0,*67
1484528892.46,10904,5.06,72450.5,-19.51,-20.25,-20.29,0,*6C
1484528893.68,10905,5.06,72448.5,-19.51,-20.29,-20.25,0,*6D
1484528894.9,10906,5.06,72452.3,-19.51,-20.29,-20.25,0,*6E
1484528896.14,10907,5.06,72450.0,-19.51,-20.25,-20.15,0,*60
1484528897.41,10908,5.06,72450.8,-19.51,-20.19,-20.19,0,*6C
1484528898.63,10909,5.06,72454.0,-19.51,-20.25,-20.29,0,*61
1484528899.86,10910,5.06,72452.0,-19.51,-20.25,-20.25,0,*65
1484528901.08,10911,5.06,72452.3,-19.51,-20.25,-20.25,0,*64
1484528902.31,10912,5.13,72454.8,-19.51,-20.25,-20.25,0,*67